Regional Weather Roundup
Issued by NWS Newport/Morehead, NC

Current Version | Previous Version | Graphics & Text | Print | Product List | Glossary Off
Versions: 1 2 3 4 5 6 7 8 9 10 11 12 13 14 15 16 17 18 19 20 21 22 23 24 25 26 27 28 29 30 31 32 33 34 35 36 37 38 39 40 41 42 43 44 45 46 47 48 49 50

347
ASUS42 KMHX 281825
RWRMHX
WEATHER ROUNDUP FOR EASTERN NORTH CAROLINA
NATIONAL WEATHER SERVICE NEWPORT/MOREHEAD CITY NC
200 PM EDT WED SEP 28 2016

NOTE: "FAIR" INDICATES FEW OR NO CLOUDS BELOW 12,000 FEET
WITH NO SIGNIFICANT WEATHER AND/OR OBSTRUCTIONS TO VISIBILITY

NCZ015>017-031-032-045>047-102-103-281900-
NORTH COAST

CITY           SKY/WX    TMP DP  RH WIND       PRES   REMARKS
EDENTON        MOSUNNY   85  67  55 SE6       29.96F
ELIZABETH CITY PTSUNNY   82  69  64 E13       29.97F
KITTY HAWK     CLEAR     83  75  75 E6        29.98S
MANTEO         PTSUNNY   78  71  77 E9        29.98F

$$

NCZ045>047-081-094-103-104-281900-
CENTRAL COAST

CITY           SKY/WX    TMP DP  RH WIND       PRES   REMARKS
FRISCO         CLOUDY    80  71  74 VRB3      29.98F

$$

NCZ095-097-098-100-101-281900-
SOUTHERN COAST

CITY           SKY/WX    TMP DP  RH WIND       PRES   REMARKS
BEAUFORT       SUNNY     83  66  56 S6        29.98F
CEDAR ISLAND   NOT AVBL
JACKSONVILLE   MOSUNNY   85  70  60 S10       29.95F
PINEY ISLAND   CLEAR    N/A N/A N/A E10       29.97F
WILMINGTON     MOSUNNY   84  73  69 SE9       29.96F


$$

NCZ011>013-027>030-043-044-078>080-089-090>093-098-281900-
COASTAL PLAIN

CITY           SKY/WX    TMP DP  RH WIND       PRES   REMARKS
AHOSKIE        SUNNY     82  71  70 S5        29.95F
CLINTON        MOSUNNY   85  71  64 S6        29.95S
ELIZABETHTOWN  MOSUNNY   87  70  57 S6        29.94F
GOLDSBORO      MOSUNNY   84  74  70 S7        29.93F
GREENVILLE     MOSUNNY   86  72  62 S9        29.97F
HAVELOCK       PTSUNNY   85  71  63 SE8       29.97F
KENANSVILLE    MOSUNNY   84  72  65 SE7       29.95F
KINSTON        MOSUNNY   86  70  58 S9        29.96F
NEW BERN       PTSUNNY   87  71  58 SE8       29.97F
RICHLANDS      PTSUNNY   86  71  60 S9        29.96F
ROCKY MOUNT    PTSUNNY   83  72  69 S7        29.94F
WASHINGTON     MOSUNNY   84  71  63 S9        29.95F
WHITEVILLE     MOSUNNY   87  69  55 S9        29.94F

$$

AMZ130-135-150-152-154-156-158-170-250-252-270-ANZ085-086-088-633-658-670-281900-
MARINE OBSERVATIONS

STATION/POSITION TIME  TEMP    WIND        PRES    WAVE   SWELL
                       AIR SEA DIR/SP/G            HT/PER HT/PER
                 (UTC) (F)     (DEG/KT/KT) (MB)    (FT/S) (FT/S)
CHESAPEAKE LIGHT NOT AVBL
64 E VA BEACH    1750   76 75   70/  6/  8 1014.9    4/11   3/11
DUCK             1800   77 77  100/  8/  9 1014.9
2 E DUCK         1741      77                N/A     3/ 7   2/12
OREGON INLET     1800   77 76   70/  5/  9 1015.3
13E OREGON INLT  1800      77                N/A     3/11   3/11
HATTERAS CG      1800   78 77  140/  5/  8 1015.1
DIAMOND BUOY     1750   77 84   20/  4/  6 1015.3    4/ 7   3/ 7
CAPE LOOKOUT     1800   80     140/  4/  5 1014.8
BEAUFORT LAB     1800   80 77  170/  7/  9 1014.5
30 SE NEW RVR IN 1808   82 84  190/  4/  6 1015.2
30 SE NEW RVR IN 1755      84                N/A     3/ 6   2/12
27 SE WRIGHTSVLE 1808   81 83  190/  6/  8 1015.3
5 SE WRIGHTSVLE  NOT AVBL
225 S CAPE HAT   1750   81 83  220/ 16/ 17 1014.9    4/11   2/11
41 SE CHARLESTON 1750   81 83  200/  6/  8 1014.8    2/10   2/10

$$




USA.gov is the U.S. government's official web portal to all federal, state and local government web resources and services.